Location: Unspecified
(42.3650°N, 71.1030°W)
Time: 20:22:20
(UTC+00:00)

Vanguard 2 - Pass Details

Date: 01 July 2024
Orbit: 552 x 2913 km, 32.9° (Epoch: 22 July)

Event Time Altitude Azimuth Distance (km) Brightness Sun altitude
Exits shadow 05:41:26 16° 144° (SE) 3,420 10.4 -23.4°
Maximum altitude 05:43:00 17° 133° (SE) 3,528 10.6 -23.4°
Drops below altitude 10° 05:49:52 10° 100° (E) 4,668 11.6 -23.0°
Sets 05:56:14 0° 84° (E) 6,138 12.4 -22.7°
